Kosmos-723

operational
NORAD ID: 7718 Int'l Des: 1975-024 Owner: VMF Country: SU
LEOCIRCULAR

Kosmos-723について

説明を読み込み中...

リアルタイム位置

3D地球を読み込み中...

次回通過

高度履歴

Altitude vs Time

uPlot chart will show altitude changes over time

軌道要素

1 07718U 75024A 26062.50855902 -.00000072 00000-0 16175-4 0 9995
2 07718 64.7161 214.8280 0040082 1.5188 358.5987 13.89658204584099
Epoch: Mar 3, 2026 • Age: 29 hours

現在のステータス

高度 960.2 km
速度 7.36 km/s
衛星直下点 5.53°N, 159.72°E
タイプ other

大規模コンステレーション

Loading constellations...